Location: Krasnoyarskiy
(51.1133°N, 71.6497°E)
Time: 12:38:30
(UTC+00:00)

ICEYE-X21 - Visible Passes

Search period start: 26 September 2023 00:00
Search period end: 06 October 2023 00:00
Orbit: 501 x 519 km, 97.5° (Epoch: 26 September)

Date Brightness Start Highest point End Pass type
(mag) Time Alt. Az. Time Alt. Az. Time Alt. Az.
26 Sep ? 14:40:43 12° NE 14:40:43 12° NE 14:41:47 10° NNE visible
26 Sep ? 16:15:36 25° NNW 16:15:36 25° NNW 16:17:16 10° NNW visible
27 Sep ? 15:59:02 25° N 15:59:02 25° N 16:00:43 10° N visible
28 Sep ? 15:42:26 23° N 15:42:26 23° N 15:44:03 10° N visible
29 Sep ? 15:25:47 20° NNE 15:25:47 20° NNE 15:27:17 10° N visible
29 Sep ? 17:00:41 12° NW 17:00:41 12° NW 17:01:04 10° NW visible
30 Sep ? 15:09:07 16° NNE 15:09:07 16° NNE 15:10:21 10° NNE visible
30 Sep ? 16:44:01 14° NNW 16:44:01 14° NNW 16:44:42 10° NNW visible
01 Oct ? 14:52:25 13° NNE 14:52:25 13° NNE 14:53:15 10° NNE visible
01 Oct ? 16:27:18 16° NNW 16:27:18 16° NNW 16:28:11 10° NNW visible
02 Oct ? 16:10:35 17° NNW 16:10:35 17° NNW 16:11:32 10° NNW visible
03 Oct ? 15:53:48 17° N 15:53:48 17° N 15:54:46 10° N visible
04 Oct ? 15:37:00 16° N 15:37:00 16° N 15:37:53 10° N visible
05 Oct ? 15:20:10 14° NNE 15:20:10 14° NNE 15:20:53 10° N visible
